FENGYUN 1C DEB, 37907

Orbit data source: Space-Track

FENGYUN 1C DEB, 37907 is space debris in SSO originally from a launch on Mon, 10 May 1999 UTC launched from the Taiyaun Space Center, China (TSC). Fengyun 1C debris stems from the Chinese weather satellite Fengyun-1C, which was intentionally destroyed by a Chinese anti-satellite missile in 2007. This event dramatically increased the amount of space debris, with thousands of trackable fragments posing hazards to satellites and human spaceflight. The Fengyun 1C debris cloud has become a focal point in discussions about space sustainability and the need for international regulations to prevent the creation of new debris.

Loading next visibility...
Identifier
37907, 1999-025ENG
Orbit
SSO
Country
Flag of CNCN / PRC
Related business
Manufacturer
Unknown
Mission
Spacecraft
Bus & Motor
Unknown
Mass
Unknown
Launch date (UTC)
1999-05-10 (27 years ago)
Launch vehicle
Unknown
Launch site
Taiyaun Space Center, China (TSC)
Object type
Payload
Rocket body
Debris
Shape & HBR
Unknown shape, 0.1 m
Radar Cross Section
Small (<0.1 m²)

Expand to show TLE details & history
Last TLE update: 1 day ago

TLE from 1 day ago
0 FENGYUN 1C DEB
1 37907U 99025ENG 25352.11658447  .00005087  00000-0  22048-2 0  9992
2 37907  99.0798 105.2668 0063330 171.0108 189.2219 14.23621509833493
Epoch: 2025-12-18T02:47Z
TLE epoch observation values (Epoch: 2025-12-18T02:47:52.898Z)
Latitude
-0°
Longitude
-23.68031°
Altitude
861.009 km
Speed
7.399 km/s
True Right ascension
07h 01m 04s
True Declination
0° 00' 00"
Sunlit
Object was in full shadow at epoch
Visualization orbit readout
Latitude
Unknown
Longitude
Unknown
Altitude
Unknown
Speed
Unknown
Apparent Right ascension
Unknown
Apparent Declination
Unknown
Sunlit
N/A
Visualization observer readout
Local Sidereal Time
05:04:04
Azimuth
Unknown
Elevation
Unknown
Doppler factor
Unknown
Orbital elements
Apogee altitude
855.827 km
Perigee altitude
764.778 km
Semi-major axis
7,188.44 km
Eccentricity
0.00633
Inclination
99.0798°
RAAN
105.2668°
Arg. of periapsis
171.0108°
True anomaly
189.1065°
Mean anomaly
189.2219°
Eccentric anomaly
189.16411°
Mean motion
3.56116 °/min
Orbital period
101.09 mins
BSTAR
0.0022048
Loading maneuver chart data...
Computing Atmospheric mass density...

Documentation

Showing up to 5 results
|